Location: L�r Na Cruinne Observatory
(51.0505°N, 114.1691°W)
Time: 16:16:36
(UTC-06:00)

OTV 5 (USA 277) - Visible Passes

Search period start: 13 October 2019 00:00
Search period end: 23 October 2019 00:00
Orbit: 310 x 324 km, 54.5° (Epoch: 08 October)

Date Brightness Start Highest point End Pass type
(mag) Time Alt. Az. Time Alt. Az. Time Alt. Az.
13 Oct ? 04:59:11 10° ENE 04:59:11 10° ENE 04:59:12 10° ENE visible
13 Oct ? 06:30:04 26° NW 06:31:12 43° N 06:33:50 10° E visible
14 Oct ? 05:13:20 14° ENE 05:13:20 14° ENE 05:13:50 10° ENE visible
14 Oct ? 06:44:13 21° WNW 06:45:51 61° NNE 06:48:34 10° E visible
15 Oct ? 05:27:32 19° ENE 05:27:32 19° ENE 05:28:35 10° ENE visible
15 Oct ? 06:58:25 17° WNW 07:00:26 77° SSW 07:03:10 10° ESE visible
16 Oct ? 05:41:47 28° ENE 05:41:47 28° ENE 05:43:20 10° E visible
16 Oct ? 07:12:41 12° W 07:14:56 37° SSW 07:17:29 10° SE visible
17 Oct ? 05:56:07 40° ESE 05:56:07 40° ESE 05:58:00 10° ESE visible
17 Oct ? 07:27:17 10° W 07:29:18 18° SW 07:31:19 10° S visible
18 Oct ? 06:10:32 38° SSE 06:10:32 38° SSE 06:12:29 10° SE visible
19 Oct ? 06:25:04 22° S 06:25:04 22° S 06:26:36 10° SSE visible
20 Oct ? 06:39:44 11° SSW 06:39:44 11° SSW 06:39:57 10° SSW visible
